User: anonymous   Login
Location: Pine Mountain Observatory
(43.7910°N, 120.9377°W)
Time: 18:21:49
(UTC-07:00)
Language:

Meteor 2-19 Rocket - Orbit

View from above orbital plane
View from above orbital plane
View from above satellite
View from above satellite

Ground track
Ground track

The orbit data is extracted from the following two-line orbital elements,

1 20671U 90057B   17149.57618897 +.00000026 +00000-0 +10087-4 0  9998
2 20671 082.5485 026.9132 0015533 014.3283 345.8315 13.84607964360210
Epoch (UTC): 29 May 2017 13:49:42
Eccentricity: 0.0015533
inclination: 82.5485°
perigee height: 936 km
apogee height: 959 km
right ascension of ascending node: 26.9132°
argument of perigee: 14.3283°
revolutions per day: 13.84607964
mean anomaly at epoch: 345.8315°
orbit number at epoch: 36021

The dashed part of the orbit path shows where the satellite is in the earth's shadow,  

DLR